Location: Unspecified
(0.0000°N, 0.0000°E)
Time: 13:18:51
(UTC+00:00)

Explorer 11/Cluster Stage 4 - Pass Details

Date: 25 September 2019
Orbit: 467 x 1259 km, 28.8° (Epoch: 13 October)

Event Time Altitude Azimuth Distance (km) Brightness Sun altitude
Exits shadow 03:55:48 22° 110° (ESE) 1,052 7.9 -29.0°
Drops below altitude 10° 03:57:14 10° 114° (ESE) 1,616 9.0 -28.7°
Sets 03:59:26 0° 117° (ESE) 2,525 10.2 -28.1°
